GEFSSE_prec_meanprecacc_288.txt.gz
Total_Precipitation_Accumulation
1.95 1.69 2.78 3.09 2.77 2.45 2.32 2.26 2.21 2.21 2.22 2.22 2.03 1.78 1.60 1.50 1.37 1.25 1.11 1.06 1.15 1.14 1.09 1.06 1.10 1.06 1.02 1.04 1.04 1.08 1.13 1.22 1.28 1.29 1.34 1.45 1.39 1.39 1.68 2.07 2.28 2.63 2.23
1.56 1.64 2.77 3.04 2.66 2.23 2.07 2.14 2.29 2.24 2.19 2.06 1.99 1.83 1.70 1.50 1.34 1.24 1.08 1.00 1.01 1.01 0.93 1.02 1.15 1.13 1.09 1.15 1.20 1.24 1.25 1.23 1.32 1.40 1.62 1.70 1.52 1.50 1.61 2.01 2.14 2.45 2.23
1.55 1.63 2.33 2.94 2.62 2.26 2.08 2.16 2.33 2.21 2.20 2.05 1.99 1.84 1.70 1.44 1.32 1.25 1.13 1.07 1.08 0.99 0.91 1.00 1.19 1.16 1.16 1.20 1.23 1.34 1.34 1.34 1.41 1.57 2.06 2.73 2.02 1.67 1.71 1.88 2.00 1.88 2.03
1.42 1.48 1.99 2.93 2.59 2.42 2.31 2.35 2.31 2.24 2.29 2.11 1.95 1.81 1.65 1.48 1.46 1.42 1.48 1.48 1.33 1.12 1.01 1.03 1.24 1.16 1.08 1.17 1.28 1.29 1.30 1.40 1.58 1.67 2.06 2.67 2.50 1.88 1.88 2.00 2.11 1.90 1.95
1.36 1.49 2.28 2.97 2.63 2.46 2.43 2.40 2.28 2.35 2.39 2.21 1.95 1.73 1.53 1.57 1.79 1.81 1.71 1.60 1.38 1.16 1.04 1.02 1.14 1.15 1.08 1.07 1.18 1.23 1.30 1.45 1.64 1.55 1.92 2.57 2.89 2.42 1.98 1.98 2.05 1.94 1.96
1.57 1.59 2.30 2.96 2.76 2.53 2.45 2.38 2.30 2.35 2.46 2.38 2.05 1.76 1.61 1.64 1.72 1.72 1.66 1.55 1.33 1.18 1.02 1.07 1.16 1.14 1.14 1.09 1.13 1.20 1.28 1.41 1.34 1.49 2.01 2.43 2.79 2.42 1.92 1.86 2.03 2.04 2.07
1.52 1.58 2.02 2.69 2.64 2.45 2.36 2.33 2.43 2.44 2.42 2.42 2.18 1.88 1.78 1.74 1.68 1.72 1.64 1.54 1.27 1.14 1.03 1.13 1.18 1.15 1.09 1.10 1.08 1.08 1.20 1.12 1.02 1.41 1.87 2.32 2.40 2.30 2.02 2.03 2.20 2.16 2.28
1.52 1.49 1.73 2.32 2.53 2.43 2.44 2.36 2.42 2.47 2.43 2.33 2.00 1.84 1.72 1.73 1.74 1.71 1.67 1.58 1.35 1.27 1.20 1.14 1.10 1.10 1.08 1.10 1.09 1.13 1.16 0.93 0.80 1.12 1.55 2.18 2.49 2.38 2.13 2.07 2.25 2.33 2.45
1.73 1.71 1.79 2.06 2.29 2.65 2.73 2.57 2.55 2.56 2.45 2.27 1.93 1.82 1.71 1.65 1.57 1.56 1.56 1.46 1.34 1.32 1.23 1.12 1.03 1.00 1.05 1.08 1.10 1.15 1.11 0.90 0.84 1.12 1.16 1.83 2.33 2.35 2.15 2.11 2.20 2.32 2.48
1.80 1.76 1.67 1.80 1.95 2.23 2.45 2.68 2.71 2.62 2.49 2.32 1.98 1.85 1.76 1.66 1.54 1.48 1.33 1.33 1.30 1.31 1.36 1.22 1.12 1.09 1.09 1.16 1.18 1.14 1.07 0.86 0.85 0.94 1.21 1.60 2.34 2.40 2.18 2.18 2.20 2.23 2.34
1.66 1.57 1.48 1.54 1.69 1.91 2.16 2.40 2.63 2.54 2.45 2.27 1.96 1.87 1.84 1.63 1.40 1.35 1.23 1.47 1.39 1.37 1.41 1.38 1.38 1.34 1.20 1.15 1.19 1.07 0.84 0.81 1.01 1.11 1.32 1.85 2.53 2.59 2.40 2.28 2.28 2.23 2.20
1.62 1.47 1.32 1.36 1.50 1.63 1.76 2.26 2.34 2.03 1.90 1.74 1.87 1.80 1.72 1.67 1.49 1.11 1.20 1.49 1.61 1.57 1.41 1.36 1.45 1.24 0.96 0.84 0.90 0.83 0.69 0.80 0.98 1.09 1.33 2.18 2.69 2.70 2.38 2.24 2.36 2.37 2.19
1.41 1.32 1.23 1.23 1.22 1.22 1.37 1.70 1.94 1.97 1.90 1.69 1.60 1.55 1.56 1.47 1.26 1.06 1.15 1.21 1.18 1.14 1.03 1.05 1.01 0.84 0.77 0.83 0.83 0.70 0.65 0.75 0.90 1.06 1.44 2.29 2.81 2.79 2.40 2.24 2.28 2.28 2.17
1.22 1.20 1.14 1.05 1.02 0.98 1.05 1.12 1.24 1.50 1.59 1.55 1.35 1.20 1.24 1.31 1.22 1.05 1.06 1.04 1.01 1.00 1.10 1.10 1.07 0.98 0.94 0.93 0.86 0.85 0.86 0.90 0.96 1.07 1.46 2.17 2.93 3.00 2.84 2.75 2.55 2.43 2.27
1.16 1.15 1.07 0.93 0.92 0.93 0.99 1.03 0.98 1.20 1.38 1.42 1.35 1.17 1.10 1.13 1.16 1.10 0.97 0.98 0.92 0.92 0.99 1.03 1.04 1.09 1.16 1.11 1.05 1.05 1.09 1.06 0.99 0.99 1.26 1.85 2.76 3.42 3.60 3.49 2.96 2.68 2.52
1.02 1.10 1.03 0.97 1.00 0.97 0.91 0.94 0.95 1.00 1.11 1.12 1.23 1.20 1.12 1.06 1.05 1.07 1.04 1.06 1.05 1.01 0.99 0.98 0.97 1.11 1.15 1.18 1.15 1.09 1.06 0.96 0.97 1.11 1.32 1.50 1.75 2.37 3.26 3.55 3.33 3.08 2.88
0.93 0.92 0.87 0.87 0.94 0.93 0.92 0.92 0.94 1.05 1.08 1.10 1.12 1.07 1.13 1.05 1.02 1.05 1.06 1.08 1.07 1.08 1.05 1.06 1.09 1.17 1.21 1.29 1.32 1.15 1.08 1.02 0.99 1.07 1.20 1.31 1.15 1.27 2.01 2.86 3.26 3.14 3.05
0.82 0.81 0.81 0.72 0.82 0.94 1.02 1.06 1.15 1.20 1.21 1.25 1.15 1.06 1.05 1.00 0.99 1.10 1.11 1.13 1.19 1.11 1.09 1.19 1.25 1.34 1.38 1.43 1.43 1.24 1.07 1.17 1.08 1.05 1.18 1.20 1.17 1.09 1.32 1.72 2.18 2.53 2.96
0.81 0.83 0.86 0.81 0.86 0.97 1.03 1.16 1.26 1.33 1.40 1.49 1.40 1.35 1.30 1.18 1.16 1.28 1.34 1.34 1.35 1.36 1.30 1.22 1.26 1.38 1.52 1.52 1.35 1.26 1.18 1.21 1.21 1.15 1.31 1.28 1.25 1.23 1.29 1.22 1.31 1.63 2.25
0.87 0.88 0.93 1.00 1.03 1.15 1.30 1.51 1.72 1.83 1.97 2.08 1.98 1.86 1.67 1.45 1.39 1.56 1.61 1.50 1.53 1.65 1.71 1.53 1.58 1.50 1.47 1.56 1.38 1.33 1.32 1.27 1.25 1.31 1.34 1.42 1.52 1.35 1.34 1.27 1.20 1.07 1.41
0.87 0.87 0.87 0.92 1.02 1.13 1.35 1.66 2.17 2.43 2.52 2.40 2.34 2.23 2.00 1.75 1.73 1.93 1.98 1.95 1.94 1.96 1.93 1.85 2.01 1.93 1.64 1.58 1.82 1.80 1.62 1.42 1.34 1.33 1.37 1.58 1.67 1.57 1.59 1.50 1.39 1.25 1.14
0.73 0.76 0.91 0.94 0.99 1.09 1.37 1.68 2.06 2.49 2.55 2.50 2.40 2.29 2.17 2.02 1.96 2.00 2.24 2.37 2.34 2.51 2.52 2.29 2.42 2.45 2.05 1.80 2.12 2.47 2.17 1.92 1.47 1.36 1.47 1.52 1.60 1.68 1.73 1.57 1.42 1.32 1.29
0.64 0.61 0.73 0.89 1.06 1.33 1.64 1.94 2.13 2.44 2.54 2.54 2.42 2.35 2.35 2.28 2.15 2.19 2.30 2.47 2.48 2.57 2.75 2.80 2.71 2.83 2.64 2.22 2.10 2.47 2.40 2.21 1.98 1.60 1.50 1.57 1.70 1.75 1.77 1.74 1.56 1.30 1.29
0.55 0.52 0.60 0.76 1.04 1.43 1.80 2.03 2.27 2.64 2.73 2.60 2.54 2.46 2.42 2.42 2.40 2.48 2.49 2.57 2.60 2.61 2.72 2.84 2.78 2.94 3.07 2.68 2.34 2.12 1.97 1.98 2.14 1.94 1.67 1.59 1.72 1.72 1.72 1.74 1.76 1.59 1.41
0.56 0.57 0.63 0.82 1.11 1.44 1.69 1.96 2.30 2.50 2.62 2.69 2.59 2.55 2.51 2.51 2.53 2.57 2.62 2.75 2.75 2.73 2.68 2.89 2.96 3.06 3.01 2.95 2.81 2.61 2.45 2.22 1.87 2.01 2.01 1.82 1.70 1.57 1.62 1.74 1.90 1.84 1.65
0.60 0.67 0.79 0.97 1.15 1.42 1.66 1.93 2.11 2.29 2.44 2.53 2.57 2.52 2.48 2.49 2.58 2.46 2.38 2.54 2.61 2.65 2.62 2.79 2.93 3.06 3.06 3.09 3.02 2.72 2.70 2.60 2.24 2.21 2.05 1.87 1.88 1.67 1.57 1.65 1.70 1.70 1.67

GEFSSE_prec_meanprecacc_294.txt.gz
Total_Precipitation_Accumulation
2.03 1.78 2.90 3.22 2.87 2.51 2.35 2.30 2.26 2.25 2.27 2.26 2.07 1.83 1.65 1.56 1.44 1.31 1.16 1.12 1.19 1.17 1.12 1.11 1.19 1.14 1.07 1.07 1.07 1.12 1.17 1.25 1.32 1.33 1.37 1.49 1.44 1.44 1.75 2.15 2.33 2.67 2.30
1.64 1.72 2.85 3.13 2.72 2.26 2.10 2.17 2.32 2.27 2.22 2.09 2.02 1.87 1.75 1.55 1.39 1.29 1.13 1.07 1.06 1.05 0.97 1.05 1.21 1.19 1.14 1.20 1.24 1.28 1.29 1.28 1.37 1.46 1.67 1.73 1.56 1.56 1.67 2.06 2.20 2.51 2.31
1.60 1.67 2.36 2.97 2.65 2.28 2.11 2.20 2.37 2.24 2.22 2.07 2.02 1.87 1.74 1.48 1.37 1.32 1.19 1.13 1.13 1.03 0.94 1.02 1.22 1.19 1.20 1.23 1.27 1.38 1.38 1.39 1.48 1.63 2.10 2.74 2.06 1.73 1.77 1.95 2.07 1.95 2.12
1.45 1.51 2.02 2.95 2.61 2.44 2.34 2.38 2.34 2.27 2.32 2.14 2.00 1.84 1.68 1.52 1.53 1.50 1.53 1.53 1.37 1.15 1.05 1.06 1.27 1.19 1.11 1.20 1.33 1.35 1.34 1.47 1.64 1.71 2.08 2.68 2.52 1.93 1.95 2.08 2.18 1.97 2.02
1.38 1.51 2.31 3.00 2.65 2.48 2.45 2.43 2.31 2.37 2.42 2.24 2.00 1.76 1.57 1.61 1.85 1.86 1.74 1.62 1.41 1.20 1.08 1.08 1.16 1.18 1.12 1.11 1.22 1.26 1.33 1.49 1.67 1.57 1.94 2.59 2.91 2.47 2.04 2.04 2.11 2.00 2.03
1.58 1.61 2.34 3.02 2.81 2.57 2.48 2.41 2.33 2.38 2.50 2.43 2.11 1.80 1.65 1.68 1.75 1.76 1.69 1.57 1.36 1.20 1.06 1.12 1.19 1.17 1.16 1.11 1.15 1.23 1.29 1.42 1.35 1.49 2.01 2.44 2.82 2.46 1.96 1.91 2.08 2.09 2.12
1.54 1.60 2.05 2.75 2.69 2.50 2.41 2.37 2.48 2.50 2.49 2.48 2.23 1.93 1.83 1.78 1.72 1.75 1.67 1.56 1.30 1.17 1.08 1.18 1.21 1.17 1.10 1.12 1.11 1.11 1.24 1.14 1.03 1.41 1.87 2.33 2.43 2.35 2.08 2.08 2.26 2.22 2.33
1.53 1.51 1.78 2.38 2.59 2.49 2.49 2.42 2.49 2.55 2.51 2.38 2.03 1.87 1.78 1.79 1.79 1.76 1.71 1.61 1.37 1.30 1.24 1.18 1.14 1.12 1.11 1.13 1.13 1.16 1.19 0.95 0.80 1.12 1.56 2.20 2.53 2.43 2.19 2.12 2.30 2.38 2.51
1.74 1.73 1.83 2.11 2.34 2.71 2.79 2.63 2.62 2.64 2.53 2.32 1.96 1.85 1.77 1.70 1.61 1.60 1.61 1.52 1.39 1.36 1.27 1.16 1.08 1.03 1.10 1.13 1.13 1.18 1.13 0.91 0.85 1.12 1.16 1.85 2.37 2.40 2.19 2.15 2.25 2.37 2.54
1.81 1.77 1.69 1.83 1.97 2.25 2.47 2.71 2.78 2.70 2.59 2.41 2.04 1.90 1.82 1.71 1.58 1.53 1.39 1.41 1.37 1.38 1.41 1.28 1.19 1.14 1.14 1.20 1.20 1.16 1.09 0.87 0.86 0.94 1.21 1.62 2.40 2.46 2.21 2.22 2.26 2.30 2.40
1.68 1.58 1.49 1.55 1.70 1.92 2.17 2.41 2.67 2.62 2.54 2.36 2.03 1.94 1.89 1.66 1.42 1.38 1.28 1.55 1.47 1.47 1.49 1.47 1.46 1.39 1.23 1.17 1.21 1.09 0.85 0.81 1.02 1.12 1.33 1.91 2.63 2.68 2.45 2.34 2.33 2.29 2.25
1.64 1.48 1.33 1.37 1.51 1.65 1.79 2.28 2.35 2.04 1.92 1.77 1.90 1.84 1.76 1.69 1.51 1.14 1.26 1.58 1.71 1.68 1.51 1.46 1.52 1.29 0.98 0.85 0.90 0.83 0.69 0.80 0.99 1.10 1.36 2.26 2.80 2.80 2.46 2.30 2.44 2.45 2.27
1.43 1.34 1.24 1.25 1.23 1.24 1.39 1.72 1.96 1.98 1.90 1.71 1.62 1.57 1.60 1.52 1.32 1.13 1.21 1.28 1.26 1.22 1.09 1.11 1.07 0.86 0.78 0.84 0.83 0.71 0.66 0.75 0.90 1.06 1.47 2.36 2.91 2.90 2.51 2.33 2.37 2.36 2.26
1.24 1.22 1.15 1.07 1.03 1.00 1.07 1.14 1.27 1.52 1.60 1.57 1.36 1.22 1.27 1.37 1.30 1.13 1.12 1.11 1.06 1.04 1.13 1.11 1.08 0.99 0.96 0.94 0.87 0.86 0.87 0.91 0.96 1.07 1.49 2.23 3.02 3.12 2.96 2.87 2.67 2.54 2.39
1.17 1.17 1.08 0.94 0.93 0.94 1.02 1.06 1.01 1.23 1.40 1.44 1.37 1.18 1.12 1.15 1.19 1.14 1.01 1.02 0.95 0.95 1.01 1.05 1.05 1.10 1.17 1.13 1.06 1.06 1.09 1.07 1.00 0.99 1.28 1.88 2.83 3.52 3.73 3.62 3.10 2.80 2.62
1.04 1.10 1.04 0.97 1.02 0.98 0.93 0.97 0.98 1.03 1.15 1.15 1.25 1.22 1.15 1.09 1.08 1.12 1.08 1.10 1.07 1.03 1.00 0.99 0.98 1.12 1.16 1.19 1.16 1.10 1.07 0.97 0.98 1.12 1.33 1.54 1.82 2.48 3.41 3.69 3.45 3.17 2.98
0.95 0.93 0.88 0.88 0.95 0.94 0.93 0.94 0.96 1.08 1.14 1.13 1.14 1.09 1.15 1.08 1.06 1.09 1.09 1.11 1.10 1.10 1.07 1.07 1.10 1.18 1.22 1.31 1.34 1.17 1.09 1.04 1.00 1.09 1.22 1.37 1.26 1.38 2.14 3.01 3.40 3.22 3.12
0.84 0.82 0.82 0.73 0.83 0.95 1.04 1.08 1.16 1.23 1.24 1.26 1.16 1.08 1.07 1.02 1.01 1.11 1.13 1.15 1.21 1.14 1.12 1.21 1.27 1.35 1.39 1.45 1.45 1.26 1.08 1.18 1.10 1.07 1.20 1.23 1.19 1.12 1.37 1.81 2.27 2.61 3.03
0.82 0.84 0.87 0.82 0.86 0.97 1.04 1.18 1.28 1.35 1.42 1.51 1.41 1.38 1.32 1.19 1.18 1.30 1.35 1.35 1.36 1.37 1.32 1.23 1.27 1.39 1.53 1.54 1.36 1.28 1.19 1.23 1.22 1.16 1.32 1.29 1.25 1.24 1.30 1.24 1.33 1.67 2.31
0.88 0.88 0.94 1.00 1.03 1.15 1.31 1.52 1.74 1.85 1.99 2.09 2.00 1.88 1.70 1.48 1.42 1.59 1.64 1.53 1.55 1.66 1.72 1.55 1.59 1.51 1.48 1.58 1.40 1.34 1.34 1.29 1.26 1.32 1.35 1.42 1.52 1.36 1.34 1.27 1.21 1.08 1.43
0.89 0.88 0.88 0.93 1.03 1.14 1.35 1.67 2.18 2.45 2.54 2.42 2.35 2.25 2.02 1.78 1.76 1.96 2.00 1.97 1.97 1.97 1.94 1.86 2.03 1.94 1.65 1.58 1.82 1.81 1.63 1.44 1.35 1.33 1.37 1.59 1.67 1.58 1.59 1.50 1.40 1.25 1.14
0.75 0.78 0.92 0.95 1.00 1.10 1.38 1.69 2.07 2.51 2.58 2.52 2.41 2.30 2.19 2.05 1.99 2.02 2.25 2.38 2.35 2.54 2.55 2.32 2.44 2.46 2.05 1.81 2.12 2.47 2.18 1.94 1.49 1.37 1.49 1.54 1.63 1.70 1.75 1.58 1.42 1.32 1.29
0.66 0.62 0.74 0.90 1.07 1.35 1.66 1.95 2.14 2.45 2.56 2.56 2.43 2.36 2.37 2.30 2.18 2.23 2.32 2.49 2.49 2.59 2.80 2.91 2.81 2.88 2.67 2.23 2.11 2.47 2.41 2.24 2.01 1.63 1.52 1.58 1.72 1.78 1.82 1.78 1.58 1.31 1.30
0.57 0.54 0.62 0.78 1.06 1.46 1.81 2.05 2.29 2.65 2.75 2.62 2.56 2.47 2.45 2.45 2.43 2.51 2.52 2.59 2.61 2.62 2.75 2.90 2.89 3.05 3.16 2.75 2.37 2.13 1.99 2.00 2.17 1.99 1.70 1.62 1.75 1.76 1.76 1.78 1.79 1.62 1.44
0.58 0.60 0.65 0.84 1.13 1.46 1.71 1.98 2.31 2.52 2.64 2.72 2.62 2.57 2.55 2.57 2.57 2.60 2.65 2.78 2.77 2.74 2.69 2.91 2.99 3.10 3.05 2.99 2.84 2.66 2.50 2.26 1.91 2.04 2.04 1.84 1.72 1.60 1.66 1.79 1.94 1.87 1.67
0.64 0.72 0.83 1.00 1.17 1.44 1.67 1.96 2.13 2.31 2.47 2.55 2.59 2.53 2.49 2.53 2.62 2.50 2.42 2.57 2.63 2.66 2.63 2.79 2.93 3.07 3.06 3.10 3.03 2.74 2.75 2.66 2.29 2.24 2.08 1.89 1.90 1.70 1.61 1.69 1.75 1.74 1.70

GEFSSE_prec_meanprecacc_300.txt.gz
Total_Precipitation_Accumulation
2.07 1.85 3.05 3.35 2.95 2.57 2.41 2.36 2.34 2.35 2.37 2.35 2.17 1.93 1.74 1.65 1.52 1.38 1.23 1.19 1.25 1.22 1.18 1.17 1.22 1.18 1.11 1.10 1.09 1.16 1.24 1.32 1.38 1.38 1.43 1.56 1.52 1.52 1.81 2.20 2.41 2.76 2.37
1.68 1.79 2.95 3.23 2.80 2.33 2.17 2.23 2.39 2.36 2.31 2.17 2.09 1.96 1.83 1.63 1.47 1.36 1.20 1.14 1.12 1.09 1.02 1.11 1.25 1.23 1.17 1.23 1.27 1.31 1.34 1.34 1.42 1.51 1.71 1.78 1.63 1.62 1.72 2.12 2.27 2.62 2.40
1.61 1.71 2.42 3.05 2.72 2.34 2.18 2.26 2.44 2.32 2.29 2.12 2.07 1.94 1.79 1.54 1.45 1.40 1.27 1.19 1.19 1.08 0.99 1.07 1.26 1.22 1.22 1.26 1.31 1.42 1.42 1.48 1.56 1.69 2.14 2.81 2.12 1.79 1.84 2.01 2.13 2.03 2.23
1.46 1.54 2.05 3.01 2.66 2.48 2.38 2.43 2.40 2.32 2.37 2.19 2.05 1.89 1.72 1.57 1.59 1.58 1.59 1.58 1.43 1.21 1.11 1.11 1.32 1.23 1.14 1.24 1.39 1.40 1.40 1.56 1.70 1.76 2.13 2.75 2.58 1.98 2.01 2.14 2.22 2.01 2.08
1.39 1.53 2.34 3.05 2.70 2.52 2.49 2.49 2.36 2.41 2.45 2.28 2.04 1.81 1.62 1.66 1.91 1.92 1.79 1.68 1.47 1.25 1.14 1.13 1.21 1.23 1.16 1.15 1.27 1.30 1.36 1.51 1.69 1.60 1.97 2.65 2.98 2.52 2.07 2.08 2.16 2.06 2.09
1.59 1.62 2.36 3.06 2.86 2.62 2.53 2.45 2.37 2.42 2.54 2.47 2.16 1.86 1.70 1.73 1.81 1.81 1.72 1.61 1.39 1.24 1.12 1.19 1.24 1.21 1.19 1.14 1.18 1.25 1.31 1.43 1.35 1.51 2.03 2.48 2.86 2.49 2.00 1.95 2.13 2.16 2.19
1.55 1.62 2.07 2.78 2.74 2.55 2.44 2.41 2.53 2.57 2.55 2.54 2.31 2.00 1.88 1.83 1.77 1.80 1.70 1.59 1.33 1.21 1.14 1.25 1.27 1.22 1.13 1.15 1.16 1.15 1.27 1.15 1.04 1.42 1.89 2.36 2.48 2.40 2.15 2.14 2.32 2.29 2.40
1.56 1.52 1.79 2.40 2.63 2.54 2.53 2.45 2.53 2.61 2.58 2.44 2.14 1.94 1.83 1.85 1.85 1.84 1.76 1.66 1.42 1.35 1.28 1.22 1.19 1.17 1.15 1.17 1.19 1.19 1.21 0.95 0.81 1.13 1.58 2.24 2.59 2.50 2.24 2.18 2.36 2.43 2.57
1.75 1.73 1.84 2.13 2.38 2.75 2.82 2.66 2.66 2.70 2.60 2.38 2.02 1.92 1.83 1.78 1.68 1.68 1.68 1.58 1.45 1.42 1.30 1.20 1.13 1.08 1.17 1.20 1.19 1.21 1.15 0.92 0.87 1.15 1.19 1.90 2.43 2.46 2.23 2.20 2.30 2.42 2.60
1.82 1.78 1.70 1.84 1.99 2.29 2.51 2.75 2.84 2.76 2.64 2.46 2.09 1.94 1.86 1.75 1.63 1.58 1.47 1.47 1.43 1.44 1.45 1.34 1.25 1.20 1.22 1.26 1.24 1.18 1.10 0.88 0.88 0.97 1.26 1.69 2.47 2.54 2.28 2.29 2.31 2.35 2.45
1.68 1.59 1.50 1.57 1.72 1.94 2.20 2.43 2.71 2.66 2.59 2.40 2.05 1.96 1.91 1.68 1.45 1.40 1.33 1.61 1.54 1.54 1.55 1.53 1.52 1.43 1.30 1.23 1.24 1.10 0.86 0.83 1.03 1.16 1.41 1.99 2.70 2.76 2.53 2.41 2.41 2.34 2.29
1.65 1.49 1.34 1.38 1.51 1.66 1.80 2.30 2.38 2.07 1.94 1.79 1.91 1.86 1.79 1.73 1.54 1.16 1.30 1.64 1.78 1.76 1.58 1.52 1.59 1.34 1.01 0.87 0.92 0.84 0.70 0.82 1.01 1.14 1.44 2.33 2.88 2.90 2.55 2.38 2.53 2.52 2.34
1.44 1.35 1.25 1.26 1.24 1.25 1.41 1.74 1.98 2.00 1.93 1.74 1.65 1.61 1.67 1.60 1.39 1.18 1.26 1.34 1.33 1.30 1.18 1.19 1.11 0.89 0.81 0.86 0.84 0.71 0.66 0.77 0.92 1.08 1.51 2.43 3.00 3.01 2.62 2.42 2.45 2.45 2.35
1.25 1.22 1.15 1.07 1.04 1.01 1.09 1.16 1.29 1.54 1.63 1.59 1.37 1.23 1.30 1.41 1.36 1.18 1.18 1.19 1.18 1.16 1.22 1.21 1.14 1.02 0.98 0.95 0.88 0.87 0.88 0.92 0.98 1.09 1.51 2.27 3.08 3.21 3.08 2.97 2.77 2.64 2.49
1.18 1.17 1.08 0.94 0.94 0.95 1.03 1.08 1.02 1.25 1.41 1.45 1.39 1.19 1.13 1.17 1.22 1.17 1.05 1.10 1.06 1.05 1.07 1.11 1.08 1.12 1.19 1.15 1.07 1.07 1.10 1.08 1.01 1.01 1.29 1.90 2.86 3.58 3.81 3.71 3.19 2.88 2.71
1.05 1.11 1.04 0.98 1.02 0.98 0.93 0.98 0.99 1.05 1.17 1.18 1.28 1.23 1.17 1.11 1.11 1.14 1.12 1.15 1.13 1.08 1.04 1.01 0.99 1.14 1.18 1.21 1.17 1.11 1.08 0.98 0.99 1.13 1.35 1.55 1.84 2.52 3.49 3.79 3.54 3.26 3.07
0.96 0.93 0.88 0.88 0.95 0.94 0.94 0.95 0.96 1.09 1.15 1.14 1.16 1.11 1.18 1.11 1.09 1.13 1.13 1.15 1.14 1.13 1.10 1.11 1.13 1.21 1.24 1.32 1.35 1.18 1.10 1.05 1.01 1.10 1.24 1.40 1.30 1.44 2.25 3.15 3.52 3.31 3.20
0.84 0.83 0.83 0.73 0.83 0.95 1.04 1.08 1.16 1.24 1.26 1.28 1.18 1.09 1.08 1.04 1.04 1.14 1.15 1.17 1.23 1.16 1.15 1.24 1.28 1.37 1.40 1.46 1.47 1.27 1.10 1.20 1.12 1.10 1.24 1.28 1.26 1.24 1.50 1.92 2.36 2.70 3.12
0.83 0.84 0.87 0.83 0.87 0.98 1.04 1.18 1.28 1.37 1.43 1.52 1.43 1.39 1.33 1.20 1.20 1.31 1.36 1.36 1.37 1.38 1.33 1.24 1.27 1.40 1.55 1.55 1.37 1.29 1.21 1.25 1.24 1.19 1.35 1.33 1.29 1.30 1.37 1.33 1.42 1.73 2.37
0.90 0.90 0.94 1.01 1.04 1.16 1.32 1.53 1.75 1.86 2.00 2.10 2.01 1.89 1.71 1.49 1.43 1.60 1.65 1.53 1.55 1.67 1.74 1.56 1.61 1.53 1.49 1.58 1.41 1.36 1.37 1.32 1.28 1.33 1.36 1.43 1.54 1.38 1.36 1.31 1.25 1.11 1.45
0.90 0.90 0.89 0.94 1.04 1.15 1.36 1.68 2.19 2.46 2.55 2.43 2.36 2.26 2.03 1.80 1.77 1.97 2.00 1.98 1.98 1.99 1.96 1.89 2.04 1.96 1.67 1.59 1.83 1.83 1.65 1.47 1.38 1.34 1.38 1.60 1.69 1.59 1.61 1.53 1.42 1.27 1.16
0.76 0.79 0.93 0.97 1.02 1.12 1.39 1.70 2.08 2.52 2.58 2.53 2.41 2.31 2.20 2.06 2.01 2.04 2.27 2.39 2.36 2.55 2.57 2.34 2.46 2.49 2.08 1.82 2.14 2.48 2.19 1.96 1.51 1.39 1.50 1.55 1.64 1.73 1.77 1.60 1.44 1.34 1.31
0.66 0.63 0.76 0.91 1.10 1.38 1.68 1.97 2.16 2.46 2.56 2.56 2.44 2.37 2.38 2.32 2.20 2.25 2.35 2.51 2.51 2.60 2.81 2.92 2.83 2.91 2.70 2.26 2.13 2.50 2.44 2.26 2.03 1.64 1.54 1.60 1.74 1.80 1.84 1.81 1.60 1.33 1.31
0.57 0.55 0.64 0.80 1.09 1.48 1.83 2.06 2.31 2.67 2.76 2.63 2.56 2.47 2.45 2.46 2.45 2.55 2.56 2.62 2.63 2.64 2.76 2.92 2.91 3.08 3.20 2.79 2.41 2.17 2.02 2.02 2.20 2.01 1.72 1.65 1.78 1.78 1.78 1.81 1.82 1.64 1.45
0.60 0.62 0.68 0.87 1.15 1.49 1.73 2.00 2.33 2.54 2.65 2.72 2.62 2.57 2.55 2.57 2.58 2.63 2.70 2.83 2.81 2.77 2.71 2.92 3.01 3.12 3.08 3.03 2.89 2.70 2.54 2.29 1.94 2.08 2.08 1.87 1.75 1.63 1.68 1.82 1.97 1.90 1.70
0.65 0.74 0.85 1.04 1.22 1.49 1.72 1.99 2.16 2.34 2.48 2.55 2.59 2.54 2.50 2.54 2.64 2.52 2.44 2.62 2.69 2.71 2.66 2.81 2.95 3.09 3.08 3.12 3.05 2.76 2.78 2.69 2.32 2.27 2.11 1.93 1.94 1.74 1.65 1.72 1.78 1.77 1.74

GEFSSE_prec_meanprecacc_306.txt.gz
Total_Precipitation_Accumulation
2.11 1.89 3.09 3.40 3.02 2.65 2.49 2.44 2.44 2.46 2.48 2.45 2.28 2.05 1.84 1.73 1.59 1.46 1.29 1.25 1.30 1.28 1.25 1.23 1.29 1.23 1.14 1.12 1.12 1.19 1.28 1.40 1.46 1.43 1.49 1.63 1.63 1.67 1.92 2.31 2.54 2.89 2.47
1.72 1.82 2.98 3.27 2.85 2.40 2.24 2.31 2.47 2.44 2.40 2.28 2.21 2.06 1.91 1.71 1.53 1.41 1.25 1.21 1.19 1.14 1.06 1.17 1.31 1.28 1.20 1.25 1.30 1.33 1.37 1.40 1.47 1.56 1.79 1.88 1.73 1.72 1.82 2.22 2.38 2.72 2.49
1.64 1.73 2.44 3.09 2.77 2.39 2.24 2.34 2.52 2.39 2.35 2.19 2.15 2.02 1.87 1.62 1.51 1.45 1.31 1.24 1.25 1.13 1.03 1.11 1.32 1.27 1.26 1.29 1.33 1.44 1.44 1.52 1.62 1.76 2.24 2.96 2.21 1.84 1.90 2.09 2.21 2.11 2.31
1.48 1.56 2.07 3.04 2.69 2.50 2.42 2.47 2.45 2.37 2.42 2.24 2.11 1.95 1.79 1.63 1.63 1.63 1.63 1.61 1.47 1.26 1.16 1.16 1.36 1.27 1.16 1.26 1.41 1.42 1.42 1.58 1.74 1.83 2.24 2.89 2.69 2.03 2.06 2.20 2.28 2.08 2.16
1.41 1.55 2.35 3.07 2.73 2.54 2.51 2.51 2.39 2.44 2.48 2.30 2.08 1.86 1.66 1.70 1.95 1.98 1.84 1.72 1.51 1.31 1.20 1.18 1.24 1.26 1.18 1.17 1.29 1.32 1.37 1.53 1.74 1.66 2.06 2.79 3.10 2.59 2.12 2.12 2.21 2.13 2.17
1.61 1.64 2.37 3.08 2.88 2.64 2.54 2.48 2.41 2.45 2.56 2.50 2.19 1.89 1.73 1.76 1.86 1.88 1.77 1.65 1.45 1.30 1.18 1.22 1.27 1.23 1.21 1.16 1.21 1.27 1.32 1.45 1.40 1.57 2.12 2.60 2.97 2.55 2.04 1.98 2.17 2.21 2.25
1.56 1.63 2.08 2.80 2.76 2.57 2.46 2.43 2.56 2.60 2.57 2.57 2.34 2.02 1.90 1.86 1.82 1.89 1.78 1.63 1.37 1.26 1.18 1.28 1.30 1.24 1.15 1.16 1.17 1.17 1.30 1.18 1.08 1.48 1.94 2.44 2.55 2.43 2.17 2.17 2.36 2.34 2.47
1.57 1.54 1.81 2.42 2.65 2.56 2.54 2.46 2.55 2.62 2.60 2.46 2.15 1.96 1.85 1.87 1.89 1.90 1.81 1.69 1.44 1.37 1.30 1.24 1.22 1.19 1.17 1.19 1.21 1.22 1.24 0.98 0.84 1.19 1.64 2.30 2.64 2.54 2.28 2.20 2.38 2.46 2.61
1.77 1.75 1.87 2.16 2.39 2.77 2.83 2.67 2.67 2.71 2.62 2.40 2.04 1.94 1.86 1.82 1.72 1.73 1.72 1.61 1.47 1.43 1.32 1.21 1.15 1.11 1.19 1.22 1.21 1.23 1.18 0.94 0.91 1.21 1.24 1.95 2.50 2.54 2.29 2.25 2.34 2.45 2.64
1.85 1.81 1.74 1.88 2.02 2.33 2.55 2.77 2.86 2.79 2.68 2.49 2.11 1.97 1.90 1.80 1.65 1.60 1.50 1.49 1.46 1.47 1.48 1.35 1.27 1.22 1.24 1.28 1.26 1.20 1.13 0.91 0.92 1.01 1.32 1.77 2.55 2.62 2.36 2.35 2.36 2.39 2.49
1.70 1.61 1.53 1.61 1.75 1.99 2.25 2.46 2.74 2.69 2.62 2.42 2.07 1.99 1.94 1.71 1.47 1.43 1.37 1.65 1.58 1.58 1.59 1.57 1.54 1.46 1.32 1.24 1.25 1.11 0.88 0.86 1.06 1.20 1.49 2.08 2.80 2.85 2.59 2.47 2.47 2.39 2.34
1.66 1.51 1.36 1.40 1.54 1.68 1.82 2.33 2.43 2.11 1.97 1.81 1.94 1.88 1.81 1.76 1.56 1.18 1.33 1.68 1.82 1.80 1.62 1.55 1.62 1.37 1.03 0.89 0.94 0.86 0.74 0.85 1.05 1.18 1.50 2.42 2.97 2.99 2.62 2.44 2.57 2.56 2.39
1.44 1.36 1.27 1.28 1.26 1.27 1.45 1.80 2.03 2.06 1.99 1.80 1.69 1.66 1.71 1.63 1.42 1.21 1.29 1.37 1.35 1.32 1.21 1.22 1.14 0.92 0.84 0.89 0.87 0.74 0.70 0.80 0.96 1.11 1.56 2.51 3.08 3.08 2.69 2.49 2.51 2.50 2.41
1.25 1.22 1.15 1.08 1.05 1.02 1.13 1.22 1.33 1.59 1.68 1.63 1.41 1.26 1.33 1.44 1.38 1.20 1.21 1.23 1.22 1.19 1.25 1.25 1.17 1.05 1.00 0.98 0.89 0.88 0.89 0.94 1.00 1.11 1.54 2.32 3.14 3.29 3.17 3.06 2.84 2.71 2.55
1.20 1.18 1.08 0.94 0.94 0.95 1.05 1.11 1.05 1.28 1.45 1.49 1.42 1.22 1.15 1.19 1.24 1.19 1.07 1.14 1.12 1.11 1.12 1.14 1.11 1.14 1.21 1.17 1.09 1.08 1.11 1.09 1.02 1.03 1.31 1.93 2.92 3.67 3.90 3.80 3.26 2.94 2.77
1.06 1.13 1.05 0.98 1.02 0.99 0.94 0.98 1.00 1.07 1.20 1.22 1.32 1.26 1.20 1.15 1.13 1.16 1.13 1.18 1.18 1.16 1.10 1.04 1.02 1.16 1.20 1.23 1.19 1.12 1.08 0.99 1.00 1.14 1.37 1.58 1.88 2.56 3.54 3.86 3.60 3.32 3.13
0.96 0.94 0.89 0.89 0.96 0.96 0.95 0.96 0.98 1.11 1.17 1.17 1.19 1.13 1.20 1.14 1.11 1.14 1.15 1.17 1.18 1.20 1.18 1.16 1.16 1.23 1.26 1.35 1.36 1.19 1.11 1.06 1.02 1.12 1.26 1.44 1.34 1.47 2.30 3.20 3.58 3.38 3.30
0.85 0.84 0.83 0.73 0.84 0.96 1.05 1.10 1.18 1.25 1.27 1.29 1.19 1.11 1.10 1.06 1.06 1.15 1.17 1.20 1.27 1.21 1.21 1.30 1.33 1.40 1.43 1.48 1.48 1.28 1.11 1.21 1.13 1.11 1.26 1.32 1.33 1.29 1.53 1.94 2.39 2.76 3.20
0.84 0.86 0.89 0.83 0.87 0.98 1.05 1.19 1.29 1.38 1.45 1.53 1.44 1.41 1.34 1.21 1.21 1.32 1.38 1.38 1.40 1.42 1.37 1.28 1.31 1.43 1.57 1.57 1.39 1.31 1.22 1.26 1.26 1.22 1.39 1.39 1.39 1.38 1.43 1.38 1.47 1.80 2.43
0.90 0.90 0.96 1.02 1.05 1.17 1.33 1.54 1.76 1.88 2.01 2.11 2.02 1.91 1.72 1.50 1.44 1.61 1.67 1.55 1.58 1.70 1.77 1.60 1.64 1.55 1.51 1.60 1.42 1.38 1.38 1.34 1.30 1.36 1.41 1.49 1.60 1.43 1.40 1.35 1.32 1.18 1.51
0.91 0.90 0.90 0.96 1.06 1.17 1.38 1.70 2.21 2.48 2.56 2.43 2.36 2.27 2.04 1.80 1.78 1.97 2.01 2.00 2.00 2.01 1.98 1.91 2.07 1.97 1.68 1.61 1.85 1.85 1.67 1.48 1.39 1.36 1.39 1.62 1.72 1.62 1.64 1.57 1.46 1.31 1.18
0.76 0.80 0.94 0.98 1.05 1.15 1.42 1.74 2.11 2.54 2.60 2.54 2.42 2.32 2.20 2.07 2.02 2.05 2.28 2.40 2.38 2.57 2.59 2.36 2.48 2.51 2.10 1.84 2.16 2.51 2.22 1.97 1.52 1.40 1.51 1.56 1.66 1.75 1.79 1.64 1.48 1.37 1.34
0.67 0.64 0.77 0.93 1.12 1.40 1.71 2.01 2.19 2.49 2.59 2.58 2.46 2.38 2.39 2.32 2.20 2.27 2.37 2.53 2.53 2.63 2.84 2.96 2.85 2.93 2.72 2.28 2.15 2.52 2.47 2.28 2.05 1.66 1.55 1.62 1.76 1.81 1.86 1.84 1.64 1.38 1.35
0.59 0.57 0.65 0.81 1.10 1.49 1.85 2.09 2.34 2.70 2.79 2.65 2.58 2.49 2.47 2.46 2.45 2.57 2.58 2.64 2.66 2.67 2.78 2.95 2.94 3.11 3.23 2.82 2.44 2.19 2.04 2.05 2.22 2.04 1.75 1.68 1.81 1.80 1.80 1.83 1.86 1.69 1.51
0.63 0.64 0.70 0.89 1.16 1.50 1.74 2.02 2.37 2.57 2.68 2.73 2.63 2.59 2.56 2.58 2.59 2.65 2.72 2.85 2.83 2.80 2.73 2.94 3.03 3.15 3.11 3.06 2.91 2.73 2.57 2.32 1.96 2.11 2.11 1.91 1.78 1.65 1.70 1.84 2.00 1.94 1.78
0.68 0.76 0.87 1.05 1.23 1.50 1.73 2.01 2.19 2.38 2.53 2.58 2.61 2.55 2.51 2.55 2.65 2.53 2.46 2.64 2.70 2.73 2.69 2.84 2.97 3.11 3.10 3.15 3.08 2.79 2.82 2.73 2.35 2.30 2.14 1.97 1.98 1.77 1.67 1.75 1.81 1.80 1.78

GEFSSE_prec_meanprecacc_312.txt.gz
Total_Precipitation_Accumulation
2.16 1.93 3.18 3.47 3.07 2.71 2.61 2.59 2.57 2.55 2.55 2.51 2.33 2.10 1.89 1.78 1.64 1.49 1.33 1.28 1.34 1.34 1.34 1.33 1.37 1.29 1.19 1.15 1.13 1.22 1.33 1.49 1.56 1.54 1.62 1.76 1.72 1.74 1.99 2.37 2.60 2.94 2.54
1.76 1.86 3.06 3.32 2.88 2.43 2.29 2.39 2.55 2.50 2.47 2.35 2.26 2.12 1.97 1.77 1.58 1.45 1.30 1.24 1.22 1.19 1.13 1.23 1.37 1.32 1.23 1.28 1.32 1.36 1.41 1.45 1.54 1.65 1.89 2.01 1.84 1.81 1.90 2.30 2.44 2.78 2.56
1.67 1.75 2.48 3.13 2.80 2.41 2.27 2.38 2.56 2.43 2.40 2.24 2.20 2.08 1.93 1.67 1.54 1.49 1.36 1.27 1.28 1.16 1.07 1.15 1.36 1.30 1.28 1.32 1.35 1.46 1.47 1.55 1.67 1.83 2.31 3.02 2.28 1.92 1.95 2.15 2.29 2.17 2.37
1.49 1.57 2.09 3.06 2.72 2.53 2.45 2.50 2.48 2.40 2.45 2.29 2.16 1.99 1.83 1.66 1.67 1.68 1.68 1.65 1.49 1.28 1.19 1.19 1.38 1.29 1.19 1.28 1.43 1.44 1.45 1.61 1.79 1.87 2.26 2.91 2.72 2.09 2.13 2.27 2.36 2.14 2.21
1.43 1.56 2.37 3.08 2.74 2.56 2.53 2.53 2.41 2.47 2.50 2.33 2.11 1.89 1.70 1.73 1.99 2.02 1.89 1.77 1.55 1.34 1.22 1.21 1.26 1.28 1.21 1.19 1.31 1.34 1.40 1.56 1.77 1.68 2.07 2.80 3.11 2.64 2.17 2.19 2.28 2.22 2.24
1.63 1.65 2.39 3.09 2.90 2.65 2.56 2.49 2.42 2.46 2.57 2.51 2.21 1.91 1.76 1.78 1.88 1.90 1.81 1.69 1.51 1.36 1.23 1.27 1.30 1.26 1.24 1.18 1.23 1.29 1.35 1.48 1.41 1.58 2.12 2.61 3.00 2.60 2.08 2.04 2.24 2.30 2.32
1.58 1.64 2.09 2.81 2.78 2.58 2.47 2.43 2.57 2.62 2.59 2.58 2.35 2.03 1.92 1.88 1.86 1.91 1.82 1.68 1.41 1.31 1.24 1.34 1.34 1.27 1.19 1.20 1.20 1.20 1.33 1.20 1.09 1.49 1.95 2.45 2.59 2.50 2.24 2.24 2.41 2.40 2.53
1.58 1.55 1.82 2.43 2.67 2.57 2.54 2.47 2.56 2.64 2.61 2.47 2.16 1.97 1.86 1.89 1.92 1.92 1.83 1.71 1.46 1.39 1.33 1.29 1.28 1.24 1.22 1.24 1.24 1.26 1.28 1.00 0.85 1.20 1.65 2.31 2.71 2.65 2.37 2.28 2.43 2.50 2.66
1.79 1.76 1.88 2.18 2.41 2.79 2.84 2.68 2.68 2.72 2.64 2.41 2.04 1.94 1.87 1.83 1.74 1.74 1.73 1.63 1.49 1.45 1.33 1.23 1.19 1.16 1.24 1.26 1.25 1.27 1.22 0.97 0.92 1.21 1.24 1.98 2.60 2.64 2.37 2.32 2.37 2.49 2.68
1.86 1.83 1.76 1.91 2.04 2.34 2.56 2.78 2.88 2.80 2.69 2.51 2.12 1.98 1.92 1.82 1.67 1.62 1.51 1.52 1.48 1.50 1.50 1.38 1.29 1.25 1.27 1.32 1.30 1.22 1.14 0.92 0.93 1.01 1.34 1.84 2.67 2.72 2.45 2.41 2.40 2.43 2.53
1.71 1.62 1.55 1.65 1.79 2.01 2.26 2.47 2.76 2.72 2.64 2.44 2.09 2.01 1.96 1.73 1.48 1.44 1.38 1.68 1.60 1.62 1.62 1.59 1.56 1.48 1.34 1.27 1.28 1.13 0.89 0.87 1.08 1.21 1.52 2.20 2.93 2.98 2.70 2.54 2.52 2.44 2.39
1.67 1.52 1.37 1.42 1.56 1.69 1.83 2.34 2.45 2.14 1.99 1.82 1.95 1.89 1.82 1.77 1.58 1.19 1.35 1.72 1.85 1.83 1.64 1.57 1.63 1.39 1.05 0.91 0.95 0.87 0.75 0.86 1.06 1.20 1.55 2.52 3.09 3.10 2.70 2.50 2.63 2.61 2.45
1.45 1.36 1.28 1.29 1.27 1.28 1.46 1.81 2.04 2.07 2.01 1.81 1.71 1.67 1.72 1.64 1.44 1.22 1.30 1.39 1.38 1.34 1.22 1.23 1.16 0.93 0.85 0.90 0.88 0.75 0.70 0.80 0.97 1.12 1.59 2.57 3.15 3.15 2.75 2.55 2.57 2.55 2.45
1.25 1.23 1.16 1.09 1.05 1.03 1.13 1.23 1.34 1.59 1.69 1.65 1.43 1.28 1.34 1.46 1.39 1.21 1.21 1.24 1.24 1.21 1.27 1.26 1.18 1.06 1.01 0.99 0.91 0.89 0.90 0.95 1.00 1.12 1.56 2.35 3.19 3.35 3.24 3.12 2.90 2.76 2.60
1.20 1.19 1.08 0.95 0.94 0.96 1.05 1.11 1.06 1.29 1.45 1.50 1.44 1.25 1.17 1.21 1.25 1.19 1.07 1.15 1.15 1.13 1.14 1.15 1.12 1.16 1.23 1.19 1.10 1.09 1.12 1.09 1.03 1.03 1.32 1.95 2.96 3.71 3.98 3.91 3.36 3.00 2.82
1.07 1.14 1.06 1.00 1.04 1.00 0.95 0.99 1.01 1.08 1.21 1.23 1.34 1.28 1.22 1.17 1.14 1.16 1.14 1.19 1.21 1.20 1.13 1.06 1.03 1.18 1.22 1.25 1.20 1.13 1.09 0.99 1.01 1.15 1.37 1.59 1.90 2.59 3.60 3.95 3.69 3.38 3.18
0.97 0.95 0.91 0.91 0.99 0.98 0.97 0.98 0.99 1.12 1.18 1.18 1.20 1.15 1.22 1.17 1.13 1.16 1.15 1.19 1.20 1.25 1.23 1.19 1.18 1.26 1.28 1.36 1.37 1.20 1.12 1.06 1.03 1.12 1.27 1.45 1.35 1.50 2.34 3.29 3.69 3.47 3.35
0.86 0.85 0.84 0.74 0.85 0.97 1.06 1.11 1.19 1.26 1.27 1.29 1.20 1.12 1.11 1.08 1.08 1.16 1.18 1.21 1.29 1.25 1.28 1.36 1.37 1.44 1.46 1.50 1.50 1.30 1.12 1.22 1.13 1.12 1.27 1.34 1.36 1.33 1.59 2.03 2.48 2.84 3.27
0.87 0.88 0.91 0.84 0.88 0.99 1.06 1.21 1.30 1.39 1.47 1.55 1.45 1.42 1.35 1.23 1.23 1.33 1.39 1.39 1.42 1.44 1.42 1.34 1.36 1.48 1.62 1.61 1.42 1.33 1.23 1.27 1.26 1.24 1.42 1.41 1.42 1.42 1.48 1.43 1.53 1.88 2.53
0.93 0.92 0.97 1.04 1.06 1.18 1.35 1.57 1.79 1.90 2.03 2.13 2.03 1.91 1.73 1.51 1.46 1.63 1.68 1.56 1.60 1.72 1.79 1.63 1.68 1.60 1.55 1.64 1.45 1.40 1.40 1.35 1.30 1.38 1.44 1.52 1.63 1.48 1.46 1.39 1.35 1.28 1.65
0.93 0.92 0.92 0.98 1.08 1.19 1.41 1.72 2.23 2.50 2.58 2.44 2.37 2.27 2.05 1.81 1.79 1.99 2.02 2.01 2.01 2.02 2.00 1.92 2.08 1.99 1.71 1.63 1.87 1.86 1.68 1.49 1.39 1.37 1.42 1.65 1.75 1.66 1.67 1.59 1.49 1.38 1.26
0.78 0.81 0.96 1.02 1.08 1.20 1.45 1.76 2.13 2.56 2.62 2.55 2.43 2.33 2.22 2.08 2.03 2.07 2.30 2.42 2.39 2.59 2.61 2.37 2.49 2.51 2.10 1.85 2.17 2.53 2.23 1.98 1.53 1.41 1.53 1.59 1.68 1.77 1.81 1.66 1.50 1.41 1.38
0.70 0.66 0.78 0.95 1.14 1.43 1.72 2.02 2.20 2.50 2.60 2.60 2.46 2.39 2.40 2.33 2.20 2.27 2.38 2.54 2.55 2.64 2.86 2.97 2.87 2.94 2.73 2.29 2.15 2.53 2.48 2.29 2.05 1.67 1.56 1.64 1.78 1.83 1.88 1.86 1.66 1.41 1.39
0.63 0.60 0.68 0.83 1.12 1.52 1.87 2.10 2.36 2.72 2.82 2.67 2.58 2.50 2.48 2.47 2.46 2.57 2.58 2.65 2.67 2.68 2.79 2.96 2.95 3.12 3.24 2.82 2.44 2.20 2.04 2.06 2.23 2.05 1.76 1.70 1.84 1.83 1.84 1.87 1.89 1.72 1.56
0.67 0.69 0.75 0.94 1.21 1.53 1.78 2.06 2.40 2.60 2.70 2.76 2.65 2.59 2.56 2.58 2.59 2.65 2.72 2.85 2.83 2.80 2.74 2.95 3.04 3.15 3.12 3.06 2.91 2.73 2.57 2.32 1.97 2.12 2.13 1.93 1.79 1.68 1.73 1.87 2.03 1.98 1.82
0.72 0.81 0.93 1.10 1.29 1.54 1.78 2.06 2.22 2.40 2.54 2.59 2.63 2.56 2.51 2.55 2.65 2.53 2.46 2.65 2.71 2.73 2.69 2.85 2.98 3.11 3.11 3.16 3.09 2.80 2.82 2.73 2.35 2.31 2.16 1.98 1.99 1.79 1.69 1.77 1.83 1.83 1.82

GEFSSE_prec_meanprecacc_318.txt.gz
Total_Precipitation_Accumulation
2.17 1.95 3.28 3.57 3.16 2.82 2.72 2.72 2.70 2.67 2.68 2.63 2.44 2.20 1.99 1.86 1.71 1.54 1.38 1.34 1.40 1.42 1.43 1.40 1.43 1.34 1.24 1.19 1.17 1.27 1.42 1.60 1.69 1.69 1.74 1.86 1.84 1.87 2.10 2.46 2.67 2.99 2.60
1.77 1.88 3.14 3.41 2.97 2.54 2.42 2.53 2.67 2.65 2.63 2.49 2.38 2.24 2.07 1.85 1.65 1.52 1.37 1.32 1.30 1.27 1.19 1.30 1.44 1.37 1.29 1.33 1.37 1.42 1.49 1.52 1.63 1.74 1.99 2.09 1.94 1.94 2.03 2.42 2.53 2.82 2.63
1.68 1.78 2.55 3.21 2.86 2.48 2.34 2.45 2.66 2.56 2.53 2.37 2.31 2.17 2.01 1.75 1.62 1.58 1.43 1.35 1.36 1.24 1.13 1.20 1.40 1.34 1.32 1.36 1.42 1.50 1.51 1.61 1.74 1.89 2.36 3.05 2.35 2.05 2.07 2.26 2.39 2.25 2.44
1.51 1.60 2.14 3.11 2.76 2.59 2.52 2.55 2.55 2.48 2.54 2.39 2.26 2.07 1.90 1.72 1.74 1.75 1.74 1.72 1.56 1.33 1.24 1.24 1.42 1.34 1.23 1.33 1.49 1.48 1.48 1.65 1.82 1.89 2.27 2.93 2.74 2.18 2.25 2.41 2.48 2.24 2.30
1.45 1.58 2.42 3.13 2.78 2.62 2.59 2.57 2.45 2.52 2.56 2.39 2.17 1.95 1.75 1.77 2.04 2.09 1.96 1.83 1.59 1.39 1.28 1.26 1.31 1.33 1.25 1.24 1.35 1.37 1.44 1.60 1.79 1.69 2.08 2.81 3.14 2.71 2.25 2.30 2.43 2.35 2.34
1.65 1.67 2.44 3.16 2.94 2.70 2.60 2.52 2.46 2.51 2.61 2.56 2.26 1.96 1.80 1.82 1.91 1.95 1.86 1.74 1.55 1.39 1.28 1.32 1.35 1.32 1.29 1.23 1.27 1.34 1.40 1.50 1.42 1.59 2.13 2.62 3.02 2.66 2.14 2.10 2.34 2.40 2.40
1.60 1.66 2.14 2.87 2.83 2.62 2.50 2.47 2.60 2.64 2.62 2.60 2.38 2.07 1.94 1.91 1.89 1.93 1.85 1.71 1.45 1.35 1.28 1.40 1.41 1.34 1.24 1.24 1.25 1.25 1.37 1.22 1.10 1.50 1.97 2.46 2.62 2.56 2.30 2.30 2.47 2.47 2.60
1.60 1.57 1.86 2.47 2.72 2.62 2.59 2.50 2.58 2.66 2.64 2.49 2.18 1.99 1.88 1.92 1.95 1.96 1.86 1.73 1.48 1.42 1.38 1.35 1.35 1.32 1.27 1.29 1.31 1.32 1.32 1.02 0.86 1.21 1.67 2.34 2.77 2.73 2.46 2.35 2.47 2.56 2.72
1.81 1.78 1.91 2.21 2.44 2.81 2.88 2.72 2.71 2.75 2.66 2.43 2.06 1.96 1.89 1.87 1.76 1.78 1.77 1.66 1.51 1.48 1.37 1.28 1.27 1.26 1.32 1.34 1.32 1.33 1.27 0.99 0.93 1.22 1.28 2.05 2.69 2.75 2.46 2.38 2.43 2.55 2.74
1.88 1.85 1.78 1.93 2.06 2.35 2.58 2.81 2.92 2.84 2.72 2.53 2.15 2.00 1.94 1.86 1.70 1.65 1.54 1.55 1.50 1.53 1.53 1.41 1.34 1.31 1.36 1.40 1.35 1.26 1.19 0.94 0.94 1.03 1.39 1.93 2.78 2.83 2.52 2.46 2.46 2.49 2.59
1.72 1.63 1.56 1.66 1.81 2.03 2.28 2.50 2.80 2.76 2.67 2.47 2.11 2.03 1.98 1.76 1.49 1.46 1.40 1.71 1.62 1.63 1.64 1.61 1.59 1.52 1.39 1.31 1.32 1.15 0.90 0.88 1.09 1.22 1.57 2.31 3.04 3.07 2.77 2.61 2.58 2.51 2.46
1.70 1.55 1.40 1.44 1.57 1.70 1.85 2.37 2.47 2.16 2.01 1.84 1.95 1.90 1.83 1.78 1.59 1.20 1.37 1.76 1.87 1.85 1.66 1.59 1.66 1.42 1.07 0.93 0.97 0.88 0.75 0.86 1.06 1.20 1.59 2.61 3.17 3.17 2.78 2.58 2.71 2.69 2.53
1.46 1.38 1.30 1.30 1.27 1.28 1.47 1.82 2.06 2.09 2.02 1.83 1.72 1.68 1.73 1.65 1.44 1.23 1.31 1.41 1.40 1.35 1.24 1.24 1.17 0.94 0.86 0.91 0.88 0.75 0.71 0.81 0.98 1.13 1.63 2.64 3.21 3.23 2.83 2.62 2.65 2.63 2.53
1.27 1.23 1.17 1.10 1.07 1.04 1.15 1.25 1.36 1.61 1.71 1.66 1.44 1.29 1.35 1.46 1.41 1.22 1.22 1.25 1.26 1.23 1.28 1.27 1.19 1.06 1.01 1.00 0.91 0.89 0.91 0.96 1.01 1.12 1.59 2.41 3.25 3.43 3.32 3.20 2.99 2.84 2.67
1.23 1.21 1.10 0.96 0.97 0.99 1.09 1.15 1.08 1.30 1.47 1.52 1.46 1.26 1.18 1.21 1.26 1.20 1.08 1.17 1.18 1.16 1.15 1.16 1.13 1.16 1.24 1.20 1.11 1.11 1.13 1.10 1.03 1.03 1.33 1.98 3.00 3.77 4.04 3.99 3.45 3.10 2.89
1.10 1.16 1.08 1.01 1.05 1.02 0.97 1.02 1.02 1.09 1.22 1.24 1.35 1.30 1.24 1.18 1.15 1.17 1.15 1.21 1.25 1.24 1.18 1.10 1.05 1.19 1.24 1.26 1.22 1.16 1.11 1.01 1.02 1.15 1.37 1.60 1.92 2.62 3.64 4.02 3.78 3.48 3.26
0.99 0.97 0.92 0.92 1.02 1.01 1.00 1.01 1.01 1.14 1.19 1.18 1.21 1.17 1.24 1.19 1.17 1.18 1.18 1.22 1.24 1.30 1.30 1.25 1.21 1.28 1.30 1.38 1.40 1.23 1.15 1.10 1.05 1.13 1.27 1.45 1.36 1.52 2.38 3.35 3.76 3.55 3.44
0.88 0.87 0.85 0.75 0.87 1.00 1.08 1.13 1.23 1.28 1.29 1.30 1.22 1.13 1.13 1.11 1.12 1.20 1.21 1.24 1.33 1.30 1.34 1.42 1.43 1.48 1.50 1.54 1.53 1.33 1.15 1.24 1.15 1.13 1.28 1.35 1.37 1.34 1.61 2.06 2.55 2.92 3.38
0.89 0.90 0.92 0.85 0.89 1.01 1.07 1.22 1.32 1.42 1.48 1.57 1.49 1.45 1.38 1.25 1.26 1.37 1.42 1.42 1.44 1.48 1.46 1.39 1.41 1.53 1.66 1.65 1.47 1.38 1.28 1.30 1.29 1.26 1.44 1.43 1.43 1.43 1.50 1.45 1.57 1.94 2.63
0.94 0.94 0.99 1.05 1.07 1.19 1.35 1.58 1.80 1.92 2.05 2.15 2.07 1.95 1.76 1.54 1.49 1.66 1.71 1.58 1.62 1.74 1.81 1.67 1.74 1.65 1.60 1.68 1.49 1.43 1.43 1.38 1.34 1.41 1.46 1.53 1.64 1.49 1.47 1.40 1.38 1.34 1.73
0.96 0.95 0.94 0.99 1.09 1.20 1.41 1.72 2.23 2.51 2.59 2.46 2.41 2.31 2.08 1.85 1.82 2.00 2.04 2.02 2.02 2.04 2.02 1.94 2.12 2.05 1.77 1.68 1.91 1.89 1.70 1.51 1.41 1.37 1.42 1.66 1.76 1.67 1.68 1.60 1.53 1.44 1.34
0.81 0.85 1.00 1.05 1.11 1.22 1.47 1.77 2.15 2.57 2.63 2.56 2.45 2.35 2.24 2.11 2.06 2.09 2.31 2.44 2.40 2.60 2.63 2.39 2.50 2.54 2.14 1.89 2.20 2.55 2.25 2.00 1.54 1.41 1.53 1.59 1.69 1.78 1.82 1.67 1.53 1.47 1.46
0.74 0.70 0.83 1.00 1.19 1.48 1.75 2.05 2.23 2.51 2.62 2.62 2.48 2.41 2.42 2.35 2.23 2.30 2.39 2.55 2.56 2.66 2.87 2.99 2.87 2.95 2.73 2.30 2.17 2.55 2.50 2.31 2.07 1.67 1.57 1.64 1.78 1.83 1.88 1.88 1.69 1.47 1.45
0.68 0.65 0.74 0.89 1.18 1.57 1.91 2.13 2.39 2.75 2.85 2.69 2.60 2.51 2.50 2.50 2.48 2.60 2.59 2.65 2.67 2.69 2.81 2.97 2.95 3.13 3.24 2.82 2.45 2.20 2.05 2.06 2.24 2.06 1.77 1.71 1.84 1.84 1.84 1.87 1.91 1.78 1.61
0.72 0.74 0.81 1.00 1.28 1.60 1.83 2.10 2.44 2.63 2.74 2.79 2.67 2.61 2.58 2.60 2.61 2.66 2.73 2.86 2.84 2.81 2.75 2.96 3.05 3.16 3.12 3.07 2.92 2.74 2.58 2.33 1.97 2.13 2.14 1.93 1.81 1.69 1.74 1.88 2.04 2.00 1.85
0.76 0.87 0.98 1.14 1.34 1.60 1.82 2.09 2.24 2.43 2.58 2.62 2.65 2.58 2.53 2.57 2.66 2.54 2.47 2.65 2.71 2.73 2.70 2.85 2.99 3.13 3.11 3.17 3.10 2.81 2.83 2.73 2.36 2.31 2.16 1.99 2.00 1.80 1.70 1.78 1.84 1.84 1.84